User: anonymous   Login
Location: Oshawa
(43.9000°N, 78.8670°W)
Time: 17:54:53
(UTC-04:00)
Language:

Cosmos 1953 Rocket - Orbit

View from above orbital plane
View from above orbital plane
View from above satellite
View from above satellite

Ground track
Ground track

The orbit data is extracted from the following two-line orbital elements,

1 19211U 88050B   15188.41022523  .00000325  00000-0  37257-4 0  9995
2 19211 082.5270 147.0976 0020594 301.6771 178.1761 14.82768028461456
Epoch (UTC): 07 July 2015 09:50:43
Eccentricity: 0.0020594
inclination: 82.5270°
perigee height: 606 km
apogee height: 635 km
right ascension of ascending node: 147.0976°
argument of perigee: 301.6771°
revolutions per day: 14.82768028
mean anomaly at epoch: 178.1761°
orbit number at epoch: 46145

The dashed part of the orbit path shows where the satellite is in the earth's shadow,  

DLR